Regional Weather Roundup
Issued by NWS

Home | Current Version | Previous Version | Text Only | Print | Product List | Glossary Off
Versions: 1 2 3 4 5 6 7 8 9 10 11 12 13 14 15 16 17 18 19 20 21 22 23 24 25 26 27 28 29 30 31 32 33 34 35 36 37 38 39 40 41 42 43 44 45 46 47 48 49 50

000
ASUS43 KIND 301609
RWRIN

WEATHER ROUNDUP FOR INDIANA
NATIONAL WEATHER SERVICE INDIANAPOLIS IN
1200 PM EDT SAT MAY 30 2015

NOTE: "FAIR" INDICATES FEW OR NO CLOUDS BELOW 12,000 FEET WITH NO
SIGNIFICANT WEATHER AND/OR OBSTRUCTIONS TO VISIBILITY.

* - STATION DOES NOT REPORT WEATHER SUCH AS PRECIPITATION OR FOG.

+ - STATION NOT QUALITY CONTROLLED BY THE NATIONAL WEATHER SERVICE.
    USE DATA WITH CAUTION...ESPECIALLY DEWPOINT AND RELATIVE
    HUMIDITY OBSERVATIONS.

INZ001>003-010>013-019-020-301700-
NORTHWEST INDIANA

CITY           SKY/WX    TMP DP  RH WIND       PRES   REMARKS
GARY /AIRPORT/ LGT RAIN  70  66  88 W7        30.01R
KNOX *+        CLOUDY    70  66  88 CALM      30.00S
LA PORTE +     LGT RAIN  70  67  90 SW3       30.02R
MICHIGAN CITY+ LGT RAIN  70  68  94 CALM      30.02R
MONTICELLO +   CLOUDY    73  67  82 CALM      30.00S
RENSSELAER +   LGT RAIN  70  68  94 CALM      30.01S
VALPARAISO     LGT RAIN  68  66  93 CALM      30.02R

$$

LMZ046-743>745-301700-
SOUTHERN LAKE MICHIGAN

STATION/POSITION TIME  TEMP    WIND        PRES    WAVE
                       AIR SEA DIR/SP/G            HT
                 (UTC) (F)     (DEG/KT/KT) (MB)    (FT)
BURNS HARBOR     1600   65     300/  3/  4 1016.6S
MICHIGAN CITY    1600   69     210/  2/  3   N/A
5NW MICH CITY    1600   60 57  280/  4/  8   N/A     0

$$

INZ004-005-014>016-021>024-301700-
NORTH CENTRAL INDIANA

CITY           SKY/WX    TMP DP  RH WIND       PRES   REMARKS
ELKHART        LGT RAIN  72  68  88 W5        30.02R
GOSHEN         CLOUDY    74  66  76 SW6       30.01S
LOGANSPORT +   PTSUNNY   73  66  78 W5        30.02S
PERU/GRISSOM   MOSUNNY   76  67  73 VRB5      30.00S
ROCHESTER +    PTSUNNY   73  70  88 S3        30.02S
SOUTH BEND     RAIN      71  68  90 S5        30.01S FOG
WARSAW +       LGT RAIN  72  68  88 CALM      30.02S

$$

INZ006>009-017-018-025>027-301700-
NORTHEAST INDIANA

CITY           SKY/WX    TMP DP  RH WIND       PRES   REMARKS
ANGOLA *+      PTSUNNY   77  70  78 VRB7      30.01S
AUBURN +       MOSUNNY   79  64  61 SW3       30.02F
FORT WAYNE     LGT RAIN  77  65  66 SW8       30.02F
HUNTINGTON +   CLOUDY    76  67  73 W5        30.02R

$$

INZ028-029-035-036-043>045-051>053-301700-
WEST CENTRAL INDIANA

CITY           SKY/WX    TMP DP  RH WIND       PRES   REMARKS
CRAWFORDSVL +  PTSUNNY   78  62  58 SW9       29.99F
GREENCASTLE +  PTSUNNY   77  64  65 SW6       30.01F
LAFAYETTE      PTSUNNY   75  68  78 SW5       29.99F
TERRE HAUTE    MOSUNNY   78  70  76 S9        29.99F

$$

INZ030>032-037>040-046>048-054>057-064-065-301700-
CENTRAL INDIANA

CITY           SKY/WX    TMP DP  RH WIND       PRES   REMARKS
ANDERSON       PTSUNNY   81  63  54 S13       30.04S
CP ATTERBURY + PTSUNNY   81  66  61 S10G22    30.03F
FISHERS *+     MOSUNNY   81  70  69 S13       30.01F
FRANKFORT +    MOSUNNY   78  68  71 SW6       30.02S
GREENWOOD *+   PTSUNNY   81  63  54 S10G17    30.02F
INDIANAPOLIS   PTSUNNY   82  67  60 S12       29.99F
-EAGLE CREEK   MOSUNNY   81  67  62 S9        29.99F
KOKOMO *+      MOSUNNY   75  66  73 SE3       30.00F
MARION +       CLOUDY    71  66  84 NW6       30.02S
MT COMFORT *+  MOSUNNY   82  55  39 SW14      30.02F
SHELBYVILLE    MOSUNNY   84  67  56 S13       30.02F
ZIONSVILLE +   PTSUNNY   83  64  53 S12       30.01F

$$

INZ033-034-041-042-049-050-058-059-301700-
EAST CENTRAL INDIANA

CITY           SKY/WX    TMP DP  RH WIND       PRES   REMARKS
MUNCIE         MOSUNNY   80  65  59 SW13      30.02F

$$

INZ060-061-067>069-081>083-085>088-301700-
SOUTHWEST INDIANA

CITY           SKY/WX    TMP DP  RH WIND       PRES   REMARKS
EVANSVILLE     PTSUNNY   82  69  64 S10G18    30.01S
HUNTINGBURG *+ MOSUNNY   81  66  61 S17       30.02F
WASHINGTON +   PTSUNNY   80  64  57 S14       30.00S

$$

INZ062-063-066-070>080-084-089>092-301700-
SOUTH CENTRAL AND SOUTHEAST INDIANA

CITY           SKY/WX    TMP DP  RH WIND       PRES   REMARKS
BLOOMINGTON    TSTM      76  69  79 SW15      30.02S
MADISON *+     PTSUNNY   82  63  51 S14       30.08F
NORTH VERNON + MOSUNNY   82  68  61 S9        30.05F
SEYMOUR +      MOSUNNY   84  64  51 SW20G25   30.03F

$$




USA.gov is the U.S. government's official web portal to all federal, state and local government web resources and services.